| time (UTC) | temp F | wind direction | speed knots | gust knots | rain 1hr in | rain 24hr in | rain mn in | humidity % | barometer mb |
| 20260504080802 | 75 | 359 | 0.0 | 0.9 | 0.00 | 0.00 | 0.00 | 69 | 1016.8 |
| 20260504043802 | 74 | 343 | 0.0 | 0.0 | 0.00 | 0.00 | 1.51 | 69 | 1019.1 |
| 20260504040802 | 74 | 343 | 0.0 | 0.0 | 0.00 | 0.00 | 1.51 | 69 | 1019.4 |
| 20260504033802 | 75 | 345 | 0.0 | 0.0 | 0.00 | 0.00 | 1.51 | 69 | 1019.5 |
| 20260504030801 | 76 | 343 | 0.0 | 0.0 | 0.00 | 0.00 | 1.51 | 69 | 1019.1 |
| 20260504023801 | 75 | 339 | 0.0 | 2.6 | 0.00 | 0.00 | 1.51 | 69 | 1019.0 |
| 20260504020802 | 76 | 350 | 0.0 | 0.0 | 0.00 | 0.00 | 1.51 | 69 | 1018.9 |
| 20260504013803 | 76 | 345 | 0.0 | 10.4 | 0.00 | 0.00 | 1.51 | 69 | 1018.7 |
| 20260504010802 | 76 | 338 | 4.3 | 8.7 | 0.00 | 0.00 | 1.51 | 69 | 1018.8 |
| 20260504003802 | 76 | 354 | 0.0 | 9.6 | 0.00 | 0.00 | 1.51 | 69 | 1018.7 |
| 20260504000802 | 76 | 340 | 0.0 | 9.6 | 0.00 | 0.00 | 1.51 | 69 | 1018.4 |
| 20260503233802 | 76 | 4 | 0.0 | 9.6 | 0.00 | 0.00 | 1.51 | 69 | 1018.0 |
| 20260503230801 | 75 | 359 | 0.0 | 3.5 | 0.00 | 0.00 | 1.51 | 69 | 1017.4 |
| 20260503223802 | 74 | 359 | 0.0 | 0.0 | 0.00 | 0.00 | 1.51 | 69 | 1017.4 |
| 20260503220802 | 74 | 359 | 0.0 | 1.7 | 0.00 | 0.00 | 1.51 | 69 | 1017.8 |
| 20260503213802 | 75 | 359 | 0.0 | 4.3 | 0.00 | 0.00 | 1.01 | 69 | 1017.7 |
| 20260503210801 | 77 | 359 | 0.0 | 0.0 | 0.00 | 0.00 | 0.18 | 69 | 1017.6 |
| 20260503203802 | 79 | 354 | 0.0 | 0.0 | 0.00 | 0.00 | 0.02 | 69 | 1017.4 |
| 20260503200802 | 80 | 354 | 0.0 | 0.0 | 0.00 | 0.00 | 0.02 | 69 | 1017.4 |
| 20260503193802 | 80 | 354 | 0.0 | 0.0 | 0.00 | 0.00 | 0.02 | 69 | 1017.5 |
| 20260503190802 | 80 | 359 | 0.0 | 0.0 | 0.00 | 0.00 | 0.02 | 69 | 1018.0 |
| 20260503183802 | 80 | 354 | 0.0 | 0.0 | 0.00 | 0.00 | 0.02 | 69 | 1018.5 |
| 20260503180802 | 80 | 354 | 0.0 | 1.7 | 0.00 | 0.00 | 0.02 | 69 | 1019.0 |
| 20260503173801 | 81 | 359 | 0.0 | 0.0 | 0.00 | 0.00 | 0.02 | 69 | 1019.4 |
| 20260503170802 | 81 | 359 | 0.0 | 0.0 | 0.00 | 0.00 | 0.02 | 69 | 1020.0 |
| 20260503150802 | 80 | 354 | 0.0 | 0.9 | 0.00 | 0.00 | 0.02 | 69 | 1020.5 |
| 20260503130801 | 75 | 287 | 0.0 | 0.0 | 0.00 | 0.00 | 0.02 | 69 | 1020.5 |
| 20260503110802 | 72 | 291 | 0.0 | 0.0 | 0.00 | 0.00 | 0.02 | 69 | 1019.0 |